BVR114 ROAH-RJBB

Flight info

Callsign BVR114
Flight time N/A
Altitude 38000
Route CHERY AMAMI Y53 MADOG B597 SUC Y53 NIXOV
Aircraft B738/M-SDE2E3FGHIRWXY/LB1

Departure

Time 2026-04-08 08:36
Airport Naha International Airport (ROAH)

Arrival

Time N/A
Airport Kansai International Airport (RJBB)
Time Latitude Longitude Altitude Speed Heading
2026-04-08 08:25 26.20442 127.64866 20 ft 0 kts 47°
2026-04-08 08:28 26.20436 127.64859 20 ft 4 kts 47°
2026-04-08 08:29 26.20418 127.64837 20 ft 4 kts 47°
2026-04-08 08:29 26.20399 127.64815 21 ft 4 kts 37°
2026-04-08 08:29 26.20376 127.64802 19 ft 4 kts
2026-04-08 08:29 26.20354 127.64807 19 ft 3 kts 309°
2026-04-08 08:30 26.20350 127.64814 22 ft 0 kts 306°
2026-04-08 08:32 26.20354 127.64808 19 ft 3 kts 306°
2026-04-08 08:32 26.20379 127.64777 19 ft 8 kts 321°
2026-04-08 08:32 26.20446 127.64753 17 ft 12 kts 357°
2026-04-08 08:32 26.20544 127.64749 16 ft 16 kts 357°
2026-04-08 08:33 26.20662 127.64743 16 ft 19 kts 356°
2026-04-08 08:33 26.20797 127.64737 16 ft 19 kts 358°
2026-04-08 08:33 26.20899 127.64673 16 ft 18 kts 286°
2026-04-08 08:33 26.20901 127.64549 17 ft 14 kts 243°
2026-04-08 08:34 26.20846 127.64527 17 ft 0 kts 179°
2026-04-08 08:34 26.20828 127.64528 17 ft 11 kts 178°
2026-04-08 08:35 26.20669 127.64537 18 ft 40 kts 177°
2026-04-08 08:35 26.20169 127.64560 16 ft 102 kts 177°
2026-04-08 08:35 26.19287 127.64602 17 ft 152 kts 176°
2026-04-08 08:35 26.18133 127.64665 313 ft 169 kts 173°
2026-04-08 08:36 26.16963 127.64762 861 ft 172 kts 173°
2026-04-08 08:36 26.15750 127.64824 1443 ft 179 kts 174°
2026-04-08 08:36 26.14419 127.64889 1654 ft 206 kts 174°
2026-04-08 08:36 26.12911 127.64958 1823 ft 226 kts 174°
2026-04-08 08:37 26.11293 127.65030 2153 ft 239 kts 175°
2026-04-08 08:37 26.09557 127.65106 2442 ft 257 kts 175°
2026-04-08 08:37 26.07776 127.65179 3174 ft 256 kts 175°
2026-04-08 08:37 26.05960 127.65252 3785 ft 262 kts 176°
2026-04-08 08:38 26.04139 127.65354 4367 ft 267 kts 170°
2026-04-08 08:38 26.02442 127.66131 4984 ft 267 kts 140°
2026-04-08 08:38 26.01294 127.67759 5581 ft 273 kts 112°
2026-04-08 08:38 26.00929 127.69814 6133 ft 278 kts 90°
2026-04-08 08:39 26.00988 127.71985 6713 ft 283 kts 86°
2026-04-08 08:39 26.01316 127.74125 7264 ft 286 kts 65°
2026-04-08 08:39 26.02415 127.75998 7844 ft 287 kts 49°
2026-04-08 08:39 26.03687 127.77734 8395 ft 293 kts 48°
2026-04-08 08:40 26.04991 127.79481 9060 ft 296 kts 47°
2026-04-08 08:40 26.06321 127.81265 9714 ft 300 kts 47°
2026-04-08 08:40 26.07646 127.83055 10306 ft 307 kts 47°
2026-04-08 08:40 26.09055 127.84965 10473 ft 329 kts 48°
2026-04-08 08:41 26.10529 127.86974 10627 ft 349 kts 48°
2026-04-08 08:41 26.12104 127.89131 10763 ft 367 kts 48°
2026-04-08 08:41 26.13751 127.91391 11001 ft 380 kts 49°
2026-04-08 08:41 26.15420 127.93683 11418 ft 386 kts 48°
2026-04-08 08:42 26.17194 127.95950 11961 ft 386 kts 39°
2026-04-08 08:42 26.19392 127.97591 12507 ft 384 kts 27°
2026-04-08 08:42 26.21713 127.99100 13044 ft 387 kts 27°
2026-04-08 08:42 26.24038 128.00623 13553 ft 391 kts 27°
2026-04-08 08:43 26.26399 128.02185 14058 ft 395 kts 27°
2026-04-08 08:43 26.28749 128.03755 14529 ft 399 kts 27°
2026-04-08 08:43 26.31143 128.05365 15010 ft 402 kts 27°
2026-04-08 08:43 26.33567 128.07001 15518 ft 405 kts 27°
2026-04-08 08:44 26.35958 128.08619 16003 ft 408 kts 27°
2026-04-08 08:44 26.38406 128.10277 16461 ft 411 kts 27°
2026-04-08 08:44 26.40835 128.11924 16931 ft 414 kts 27°
2026-04-08 08:44 26.43320 128.13610 17384 ft 417 kts 27°
2026-04-08 08:45 26.45788 128.15285 17834 ft 420 kts 27°
2026-04-08 08:45 26.48308 128.16996 18275 ft 424 kts 26°
2026-04-08 08:45 26.50851 128.18723 18637 ft 427 kts 26°
2026-04-08 08:45 26.53369 128.20435 19032 ft 429 kts 26°
2026-04-08 08:46 26.55929 128.22176 19424 ft 430 kts 26°
2026-04-08 08:46 26.58514 128.23936 19794 ft 433 kts 26°
2026-04-08 08:46 26.61065 128.25672 20138 ft 436 kts 26°
2026-04-08 08:46 26.63666 128.27444 20493 ft 439 kts 26°
2026-04-08 08:47 26.66276 128.29222 20854 ft 441 kts 26°
2026-04-08 08:47 26.68856 128.31149 21160 ft 451 kts 36°
2026-04-08 08:47 26.70957 128.33771 21476 ft 462 kts 47°
2026-04-08 08:47 26.72922 128.36636 21843 ft 464 kts 48°
2026-04-08 08:48 26.74889 128.39517 22157 ft 467 kts 47°
2026-04-08 08:48 26.76891 128.42416 22458 ft 469 kts 47°
2026-04-08 08:48 26.78897 128.45283 22789 ft 472 kts 47°
2026-04-08 08:48 26.80919 128.48148 23100 ft 474 kts 46°
2026-04-08 08:49 26.82984 128.51060 23410 ft 476 kts 46°
2026-04-08 08:49 26.85039 128.53956 23663 ft 480 kts 46°
2026-04-08 08:49 26.87133 128.56911 23884 ft 483 kts 46°
2026-04-08 08:49 26.89229 128.59874 24175 ft 484 kts 46°
2026-04-08 08:50 26.91312 128.62821 24493 ft 484 kts 46°
2026-04-08 08:50 26.93553 128.65622 24743 ft 477 kts 33°
2026-04-08 08:50 26.96288 128.67575 24966 ft 466 kts 20°
2026-04-08 08:50 26.99154 128.69229 25260 ft 466 kts 20°
2026-04-08 08:51 27.02047 128.70917 25528 ft 468 kts 20°
2026-04-08 08:51 27.04920 128.72615 25775 ft 470 kts 20°
2026-04-08 08:51 27.07823 128.74351 26027 ft 472 kts 21°
2026-04-08 08:51 27.10698 128.76085 26284 ft 473 kts 21°
2026-04-08 08:52 27.13602 128.77847 26539 ft 474 kts 21°
2026-04-08 08:52 27.16530 128.79628 26798 ft 475 kts 20°
2026-04-08 08:52 27.19411 128.81382 27051 ft 476 kts 20°
2026-04-08 08:52 27.22346 128.83169 27326 ft 477 kts 20°
2026-04-08 08:53 27.23983 128.84166 27472 ft 478 kts 20°